Cairns, Australia

5:53 AM AEST on December 19, 2017 (GMT +1000)
Cairns International

Weather History for YBCS - October, 2011

Change the Weather History Date:

Thursday, October 27, 2011

  Actual Average Record
Temperature  
Mean Temperature 78 °F -  
Max Temperature 86 °F 87 °F 89 °F (1999)
Min Temperature 70 °F 72 °F 62 °F (2017)
Cooling Degree Days 13    
Growing Degree Days 28 (Base 50)    
Moisture  
Dew Point 67 °F    
Average Humidity 68    
Maximum Humidity 88    
Minimum Humidity 40    
Precipitation  
Precipitation 0.02 in 0.12 in - ()
Sea Level Pressure  
Sea Level Pressure 29.89 in    
Wind  
Wind Speed 8 mph ()    
Max Wind Speed 15 mph    
Max Gust Speed -    
Visibility 7.6 miles    
Events      
Averages and records for this station are not official NWS values.
T = Trace of Precipitation, MM = Missing Value Source: Averaged Metar Reports

Daily Weather History Graph

Daily Weather History Graph

Search for Another Location

Airport or City:

Trip Planner

Search our weather history database for the weather conditions in past years. The results will help you decide how hot, cold, wet, or windy it might be!

Date:

Astronomy

Oct. 27, 2011 Rise Set
Actual Time 5:41 AM AEST 6:20 PM AEST
Civil Twilight 5:19 AM AEST 6:42 PM AEST
Nautical Twilight 4:53 AM AEST 7:08 PM AEST
Astronomical Twilight 4:27 AM AEST 7:35 PM AEST
Moon 5:35 AM AEST (10/27) 6:47 PM AEST (10/27)
Length of Visible Light 13h 22m
Length of Day
12h 38m
New Moon, 0% of the Moon is Illuminated
Oct 27
New Moon
Nov 3
First Quarter
Nov 11
Full
Nov 19
Last Quarter
Nov 25
New

Hourly Weather History & Observations

Time (AEST) Temp. Heat Index Dew Point Humidity Pressure Visibility Wind Dir Wind Speed Gust Speed Precip Events Conditions
12:00 AM 74 °F - 69 °F 80% 29.91 in 16 mi South 8.1 mph - -   Partly Cloudy
12:00 AM 75.2 °F - 69.8 °F 83% 29.89 in 6.2 mi South 8.1 mph - N/A   Partly Cloudy
12:30 AM 73.4 °F - 68.0 °F 83% 29.89 in 6.2 mi South 6.9 mph - N/A   Partly Cloudy
1:00 AM 73.4 °F - 68.0 °F 83% 29.89 in 6.2 mi South 6.9 mph - N/A   Partly Cloudy
1:30 AM 73.4 °F - 68.0 °F 83% 29.86 in 6.2 mi SSE 5.8 mph - N/A   Partly Cloudy
2:00 AM 73.4 °F - 68.0 °F 83% 29.86 in 6.2 mi South 6.9 mph - N/A   Partly Cloudy
2:30 AM 73.4 °F - 68.0 °F 83% 29.86 in 6.2 mi South 8.1 mph - N/A   Scattered Clouds
3:00 AM 73 °F - 68 °F 81% 29.86 in 16 mi SSE 6.9 mph - -   Partly Cloudy
3:00 AM 73.4 °F - 68.0 °F 83% 29.86 in 6.2 mi SSE 6.9 mph - N/A   Scattered Clouds
3:30 AM 71.6 °F - 68.0 °F 88% 29.86 in 6.2 mi SE 6.9 mph - N/A   Partly Cloudy
4:00 AM 71 °F - 68 °F 87% 29.86 in - SE 8.1 mph - -  
4:00 AM 71.6 °F - 68.0 °F 88% 29.83 in 6.2 mi SE 8.1 mph - N/A   Partly Cloudy
4:30 AM 71.6 °F - 68.0 °F 88% 29.86 in 6.2 mi SE 6.9 mph - N/A   Partly Cloudy
5:00 AM 71.6 °F - 68.0 °F 88% 29.86 in 6.2 mi SE 9.2 mph - N/A   Scattered Clouds
5:30 AM 71.6 °F - 66.2 °F 83% 29.86 in 6.2 mi SE 10.4 mph - N/A   Scattered Clouds
6:00 AM 72 °F - 67 °F 79% 29.88 in 16 mi SE 8.1 mph - -   Partly Cloudy
6:00 AM 71.6 °F - 66.2 °F 83% 29.86 in 6.2 mi SE 8.1 mph - N/A   Scattered Clouds
6:30 AM 71.6 °F - 68.0 °F 88% 29.89 in 6.2 mi SE 9.2 mph - N/A   Scattered Clouds
7:00 AM 73 °F - 67 °F 77% 29.91 in - SE 10.4 mph - -  
7:00 AM 73.4 °F - 68.0 °F 83% 29.89 in 6.2 mi SE 10.4 mph - N/A   Partly Cloudy
7:30 AM 75.2 °F - 66.2 °F 73% 29.92 in 6.2 mi SE 9.2 mph - N/A   Scattered Clouds
8:00 AM 77.0 °F - 66.2 °F 69% 29.92 in 6.2 mi SSE 8.1 mph - N/A   Scattered Clouds
8:30 AM 80.6 °F 83.2 °F 68.0 °F 65% 29.92 in 6.2 mi South 9.2 mph - N/A   Scattered Clouds
9:00 AM 81 °F - 67 °F 54% 29.94 in 16 mi South 10.4 mph - -   Partly Cloudy
9:00 AM 80.6 °F 83.2 °F 68.0 °F 65% 29.95 in 6.2 mi South 10.4 mph - N/A   Partly Cloudy
9:30 AM 82.4 °F 85.4 °F 68.0 °F 62% 29.95 in 6.2 mi SSE 10.4 mph - N/A   Partly Cloudy
10:00 AM 83 °F - 67 °F 49% 29.95 in - SSE 11.5 mph - -  
10:00 AM 84.2 °F 86.6 °F 66.2 °F 55% 29.92 in 6.2 mi SSE 11.5 mph - N/A   Scattered Clouds
10:30 AM 84.2 °F 86.6 °F 66.2 °F 55% 29.92 in 6.2 mi SSE 10.4 mph - N/A   Partly Cloudy
11:00 AM 84.2 °F 85.6 °F 64.4 °F 51% 29.92 in 6.2 mi ESE 9.2 mph - N/A   Partly Cloudy
11:30 AM 84.2 °F 85.0 °F 62.6 °F 48% 29.92 in 6.2 mi East 10.4 mph - N/A   Partly Cloudy
12:00 PM 85 °F - 64 °F 40% 29.91 in 16 mi East 15.0 mph - -   Partly Cloudy
12:00 PM 86.0 °F 87.3 °F 64.4 °F 48% 29.89 in 6.2 mi East 15.0 mph - N/A   Partly Cloudy
12:30 PM 86.0 °F 87.3 °F 64.4 °F 48% 29.89 in 6.2 mi East 13.8 mph - N/A   Partly Cloudy
1:00 PM 85 °F - 67 °F 46% 29.90 in - NE 11.5 mph - -  
1:00 PM 86.0 °F 89.4 °F 68.0 °F 55% 29.89 in 6.2 mi NE 11.5 mph - N/A   Partly Cloudy
1:30 PM 86.0 °F 88.2 °F 66.2 °F 51% 29.86 in 6.2 mi ENE 13.8 mph - N/A   Partly Cloudy
2:00 PM 84.2 °F 87.3 °F 68.0 °F 58% 29.86 in 6.2 mi ENE 15.0 mph - N/A   Partly Cloudy
2:30 PM 84.2 °F 86.6 °F 66.2 °F 55% 29.86 in 6.2 mi ENE 15.0 mph - N/A   Partly Cloudy
3:00 PM 85 °F - 66 °F 43% 29.86 in 19 mi East 15.0 mph - -   Partly Cloudy
3:00 PM 84.2 °F 86.6 °F 66.2 °F 55% 29.86 in 6.2 mi East 15.0 mph - N/A   Partly Cloudy
3:30 PM 86.0 °F 87.3 °F 64.4 °F 48% 29.86 in 6.2 mi East 13.8 mph - N/A   Partly Cloudy
4:00 PM 85 °F - 66 °F 43% 29.86 in - East 12.7 mph - -  
4:00 PM 84.2 °F 86.6 °F 66.2 °F 55% 29.83 in 6.2 mi East 12.7 mph - N/A   Partly Cloudy
4:30 PM 84.2 °F 86.6 °F 66.2 °F 55% 29.83 in 6.2 mi East 12.7 mph - N/A   Partly Cloudy
5:00 PM 82.4 °F 84.6 °F 66.2 °F 58% 29.86 in 6.2 mi East 12.7 mph - N/A   Partly Cloudy
5:30 PM 82.4 °F 84.6 °F 66.2 °F 58% 29.86 in 6.2 mi East 12.7 mph - N/A   Partly Cloudy
6:00 PM 80 °F - 67 °F 56% 29.87 in - East 11.5 mph - -  
6:00 PM 80.6 °F 82.7 °F 66.2 °F 61% 29.86 in 6.2 mi East 11.5 mph - N/A   Partly Cloudy
6:30 PM 78.8 °F - 66.2 °F 65% 29.89 in 6.2 mi ESE 10.4 mph - N/A   Partly Cloudy
7:00 PM 78 °F - 68 °F 65% 29.91 in - SE 10.4 mph - -  
7:00 PM 77.0 °F - 68.0 °F 74% 29.89 in 6.2 mi SE 10.4 mph - N/A   Partly Cloudy
7:30 PM 77.0 °F - 68.0 °F 74% 29.89 in 6.2 mi SSE 8.1 mph - N/A   Partly Cloudy
8:00 PM 77.0 °F - 68.0 °F 74% 29.89 in 6.2 mi South 6.9 mph - N/A   Partly Cloudy
8:30 PM 75.2 °F - 68.0 °F 78% 29.92 in 6.2 mi South 5.8 mph - N/A   Partly Cloudy
9:00 PM 76 °F - 67 °F 67% 29.93 in 19 mi SE 5.8 mph - -   Partly Cloudy
9:00 PM 75.2 °F - 68.0 °F 78% 29.92 in 6.2 mi SE 5.8 mph - N/A   Partly Cloudy
9:30 PM 75.2 °F - 68.0 °F 78% 29.92 in 6.2 mi SSE 5.8 mph - N/A   Partly Cloudy
10:00 PM 75 °F - 67 °F 71% 29.95 in - South 2.3 mph - -  
10:00 PM 75.2 °F - 68.0 °F 78% 29.92 in 6.2 mi South 2.3 mph - N/A   Partly Cloudy
10:30 PM 75.2 °F - 68.0 °F 78% 29.92 in 6.2 mi South 8.1 mph - N/A   Partly Cloudy
11:00 PM 75.2 °F - 66.2 °F 73% 29.92 in 6.2 mi SSE 8.1 mph - N/A   Partly Cloudy
11:30 PM 75.2 °F - 68.0 °F 78% 29.92 in 6.2 mi South 8.1 mph - N/A   Scattered Clouds